Location: Dal�� Lhota
(48.7500°N, 14.0167°E)
Time: 02:34:46
(UTC+00:00)

Cosmos 2082 Rocket - Pass Details

Date: 24 September 2020
Orbit: 834 x 853 km, 71.0° (Epoch: 29 October)

Event Time Altitude Azimuth Distance (km) Brightness Sun altitude
Rises 20:57:03 0° 324° (NW) 3,393 6.4 -35.8°
Reaches altitude 10° 20:59:48 10° 313° (NW) 2,456 5.4 -36.1°
Enters shadow 21:03:10 25° 279° (W) 1,627 4.0 -36.4°
